CW3077 Weather Reports


Display with metric or nautical units.
time (UTC)temp
F
wind
direction
speed
MPH
gust
MPH
rain 1hr
in
rain 24hr
in
rain mn
in
humidity
%
barometer
mb
20260505174536 78 248 5.0 16.0 0.00 0.00 0.00 78 1009.6
20260505174035 77 225 4.0 11.0 0.00 0.00 0.00 79 1009.6
20260505173516 77 225 3.0 12.0 0.00 0.00 0.00 80 1009.7
20260505173016 76 248 4.0 12.0 0.00 0.00 0.00 81 1009.6
20260505172515 76 225 5.0 9.0 0.00 0.00 0.00 81 1009.6
20260505172015 76 225 5.0 13.0 0.00 0.00 0.00 81 1009.7
20260505171515 75 225 5.0 13.0 0.00 0.00 0.00 82 1009.7
20260505171015 75 203 4.0 12.0 0.00 0.00 0.00 82 1009.6
20260505170515 75 203 4.0 11.0 0.00 0.00 0.00 83 1009.8
20260505170015 75 225 4.0 15.0 0.00 0.00 0.00 83 1009.7
20260505165535 74 203 3.0 8.0 0.00 0.00 0.00 84 1009.7
20260505165016 74 225 4.0 11.0 0.00 0.00 0.00 83 1009.7
20260505164515 74 225 5.0 11.0 0.00 0.00 0.00 84 1009.7
20260505164015 74 248 4.0 11.0 0.00 0.00 0.00 84 1009.6
20260505163515 74 225 5.0 14.0 0.00 0.00 0.00 84 1009.7
20260505163015 74 225 4.0 9.0 0.00 0.00 0.00 84 1009.6
20260505162535 73 225 3.0 7.0 0.00 0.00 0.00 85 1009.7
20260505162036 73 225 3.0 11.0 0.00 0.00 0.00 85 1009.7
20260505161516 73 225 4.0 11.0 0.00 0.00 0.00 85 1009.7
20260505161015 73 225 5.0 12.0 0.00 0.00 0.00 85 1009.6
20260505160535 73 203 4.0 9.0 0.00 0.00 0.00 86 1009.6
20260505153015 72 225 3.0 11.0 0.00 0.00 0.00 86 1009.8
20260505152535 72 225 3.0 12.0 0.00 0.00 0.00 86 1009.8
20260505152015 72 248 6.0 11.0 0.00 0.00 0.00 86 1009.8
20260505151535 72 248 4.0 11.0 0.00 0.00 0.00 86 1009.7
20260505151015 72 248 3.0 10.0 0.00 0.00 0.00 86 1009.7
20260505150515 72 248 5.0 11.0 0.00 0.00 0.00 86 1009.7
20260505140515 71 180 3.0 10.0 0.00 0.00 0.00 88 1009.2
20260505125017 70 225 5.0 11.0 0.00 0.00 0.00 88 1008.6
20260505124537 70 203 4.0 11.0 0.00 0.00 0.00 88 1008.6
20260505124037 70 225 5.0 15.0 0.00 0.00 0.00 88 1008.6
20260505123517 70 225 3.0 10.0 0.00 0.00 0.00 88 1008.5
20260505123017 70 225 4.0 14.0 0.00 0.00 0.00 86 1008.3
20260505122537 70 203 5.0 12.0 0.00 0.00 0.00 86 1008.2
20260505122017 70 203 5.0 11.0 0.00 0.00 0.00 86 1008.2
20260505121517 70 203 4.0 11.0 0.00 0.00 0.00 86 1008.1
20260505121017 70 203 3.0 15.0 0.00 0.00 0.00 86 1008.1
20260505120517 70 225 4.0 13.0 0.00 0.00 0.00 86 1008.1
20260505120016 70 225 3.0 9.0 0.00 0.00 0.00 86 1008.0
20260505115517 70 225 4.0 12.0 0.00 0.00 0.00 86 1007.8
20260505115017 70 203 5.0 11.0 0.00 0.00 0.00 86 1007.9
20260505114517 70 203 4.0 15.0 0.00 0.00 0.00 86 1007.9
20260505114017 70 225 4.0 10.0 0.00 0.00 0.00 86 1007.9
20260505113517 70 225 5.0 12.0 0.00 0.00 0.00 86 1007.9
20260505113015 70 203 4.0 11.0 0.00 0.00 0.00 86 1008.0
20260505112517 70 203 4.0 13.0 0.00 0.00 0.00 86 1007.9
20260505112017 70 203 6.0 13.0 0.00 0.00 0.00 86 1008.0
20260505111517 70 225 6.0 17.0 0.00 0.00 0.00 86 1007.9
20260505111037 70 203 6.0 11.0 0.00 0.00 0.00 86 1008.0
20260505110536 70 225 5.0 15.0 0.00 0.00 0.00 88 1008.0
20260505102017 70 203 3.0 10.0 0.00 0.00 0.00 86 1008.3
20260505101537 70 203 4.0 12.0 0.00 0.00 0.00 86 1008.3
20260505101016 70 203 3.0 9.0 0.00 0.00 0.00 86 1008.6
20260505100516 70 203 3.0 8.0 0.00 0.00 0.00 86 1008.5
20260505100016 70 158 2.0 9.0 0.00 0.00 0.00 86 1008.7
20260505095516 70 158 3.0 8.0 0.00 0.00 0.00 86 1008.5
20260505095016 70 203 3.0 10.0 0.00 0.00 0.00 86 1008.3
20260505094516 70 180 2.0 10.0 0.00 0.00 0.00 86 1008.4
20260505094016 70 225 4.0 10.0 0.00 0.00 0.00 86 1008.5
20260505093517 70 203 3.0 14.0 0.00 0.00 0.00 86 1008.7
20260505093017 70 203 2.0 10.0 0.00 0.00 0.00 86 1008.7
20260505092536 70 203 3.0 9.0 0.00 0.00 0.00 86 1008.7
20260505092017 70 203 3.0 10.0 0.00 0.00 0.00 86 1008.6
20260505091516 70 180 3.0 15.0 0.00 0.00 0.00 86 1008.6
20260505091036 70 203 4.0 16.0 0.00 0.00 0.00 86 1008.8
20260505090516 70 225 5.0 14.0 0.00 0.00 0.00 86 1008.9
20260505090017 70 203 5.0 16.0 0.00 0.00 0.00 86 1008.7
20260505085516 70 203 4.0 15.0 0.00 0.00 0.00 86 1008.7
20260505085056 70 203 5.0 14.0 0.00 0.00 0.00 86 1008.8
20260505084516 70 225 4.0 12.0 0.00 0.00 0.00 86 1009.0
20260505084016 70 180 3.0 11.0 0.00 0.00 0.00 86 1008.9
20260505083516 70 180 3.0 11.0 0.00 0.00 0.00 86 1008.8
20260505083037 70 180 4.0 11.0 0.00 0.00 0.00 86 1008.9
20260505082516 70 203 4.0 12.0 0.00 0.00 0.00 86 1008.9
20260505082016 70 203 4.0 11.0 0.00 0.00 0.00 86 1009.2
20260505081516 70 203 4.0 12.0 0.00 0.00 0.00 86 1009.3
20260505081016 70 225 4.0 12.0 0.00 0.00 0.00 86 1009.2
20260505080516 70 225 4.0 12.0 0.00 0.00 0.00 86 1009.2
20260505080016 70 203 3.0 9.0 0.00 0.00 0.00 86 1009.0
20260505075516 70 203 6.0 12.0 0.00 0.00 0.00 86 1009.0
20260505075016 70 180 4.0 14.0 0.00 0.00 0.00 86 1009.1
20260505074517 70 203 4.0 11.0 0.00 0.00 0.00 86 1009.4
20260505074016 70 225 4.0 12.0 0.00 0.00 0.00 86 1009.3
20260505073516 70 225 5.0 17.0 0.00 0.00 0.00 85 1009.2
20260505073016 70 203 5.0 9.0 0.00 0.00 0.00 85 1009.4
20260505072517 70 180 5.0 15.0 0.00 0.00 0.00 85 1009.3
20260505072016 70 203 5.0 14.0 0.00 0.00 0.00 85 1009.4
20260505071517 70 203 6.0 14.0 0.00 0.00 0.00 85 1009.8
20260505071016 70 203 5.0 12.0 0.00 0.00 0.00 85 1009.8
20260505070516 70 203 5.0 13.0 0.00 0.00 0.00 85 1009.7
20260505070016 71 203 6.0 14.0 0.00 0.00 0.00 85 1009.8
20260505065516 71 225 4.0 11.0 0.00 0.00 0.00 85 1010.0
20260505065016 71 225 6.0 17.0 0.00 0.00 0.00 85 1010.0
20260505064516 71 203 5.0 17.0 0.00 0.00 0.00 85 1009.9
20260505064016 71 203 5.0 12.0 0.00 0.00 0.00 85 1009.9
20260505063516 71 203 6.0 14.0 0.00 0.00 0.00 84 1010.0
20260505063016 71 203 6.0 14.0 0.00 0.00 0.00 84 1010.2
20260505062516 71 203 6.0 13.0 0.00 0.00 0.00 84 1010.3
20260505062016 71 180 5.0 15.0 0.00 0.00 0.00 84 1010.2
20260505061516 71 180 5.0 16.0 0.00 0.00 0.00 84 1010.2
20260505061056 71 180 3.0 11.0 0.00 0.00 0.00 84 1010.3
20260505060516 71 203 4.0 14.0 0.00 0.00 0.00 84 1010.3
20260505060036 71 203 3.0 9.0 0.00 0.00 0.00 84 1010.4
20260505055516 71 135 3.0 9.0 0.00 0.00 0.00 84 1010.1
20260505055016 71 158 2.0 8.0 0.00 0.00 0.00 84 1010.3
20260505054516 71 180 5.0 12.0 0.00 0.00 0.00 84 1010.3
20260505054016 71 203 3.0 11.0 0.00 0.00 0.00 84 1010.1
20260505053516 71 203 3.0 8.0 0.00 0.00 0.00 84 1010.0
20260505053016 71 203 4.0 14.0 0.00 0.00 0.00 84 1010.0
20260505052516 71 203 4.0 10.0 0.00 0.00 0.00 84 1010.1
20260505052036 71 203 5.0 13.0 0.00 0.00 0.00 84 1010.0
20260505051536 71 225 3.0 10.0 0.00 0.00 0.00 84 1010.1
20260505051016 71 158 5.0 11.0 0.00 0.00 0.00 84 1010.0
20260505050516 71 180 3.0 11.0 0.00 0.00 0.00 84 1009.9
20260505041516 72 180 5.0 16.0 0.00 0.00 0.00 82 1009.9
20260505041017 72 180 5.0 23.0 0.00 0.00 0.00 81 1010.0
20260505040537 72 180 6.0 22.0 0.00 0.00 0.00 81 1009.9
20260505040016 73 180 6.0 12.0 0.00 0.00 0.00 81 1009.8
20260505035517 73 180 6.0 16.0 0.00 0.00 0.00 81 1009.9
20260505035016 73 180 6.0 13.0 0.00 0.00 0.00 81 1010.1
20260505034517 73 203 4.0 10.0 0.00 0.00 0.00 80 1010.0
20260505034016 73 203 4.0 9.0 0.00 0.00 0.00 80 1010.0
20260505033516 73 180 5.0 12.0 0.00 0.00 0.00 80 1010.1
20260505033016 73 203 5.0 14.0 0.00 0.00 0.00 79 1010.0
20260505032517 73 180 5.0 11.0 0.00 0.00 0.00 79 1010.0
20260505032016 73 158 4.0 18.0 0.00 0.00 0.00 79 1009.9
20260505031537 73 203 4.0 12.0 0.00 0.00 0.00 79 1009.8
20260505031016 74 180 4.0 11.0 0.00 0.00 0.00 78 1009.8
20260505030516 74 203 3.0 9.0 0.00 0.00 0.00 78 1010.0
20260505030017 74 180 4.0 12.0 0.00 0.00 0.00 78 1010.1
20260505025516 74 203 4.0 10.0 0.00 0.00 0.00 77 1010.0
20260505025016 74 158 4.0 10.0 0.00 0.00 0.00 77 1009.9
20260505024517 74 180 4.0 10.0 0.00 0.00 0.00 76 1010.0
20260505024017 74 158 4.0 10.0 0.00 0.00 0.00 76 1009.8
20260505023516 75 203 5.0 12.0 0.00 0.00 0.00 75 1010.1
20260505023016 75 203 4.0 11.0 0.00 0.00 0.00 75 1009.9
20260505022517 75 158 4.0 10.0 0.00 0.00 0.00 74 1009.9
20260505022058 75 158 4.0 12.0 0.00 0.00 0.00 74 1009.9
20260505021516 75 203 4.0 9.0 0.00 0.00 0.00 74 1009.8
20260505021016 75 180 4.0 11.0 0.00 0.00 0.00 73 1009.7
20260505020537 75 203 3.0 11.0 0.00 0.00 0.00 73 1009.6
20260505020017 75 203 5.0 12.0 0.00 0.00 0.00 72 1009.7
20260505015516 75 180 4.0 11.0 0.00 0.00 0.00 71 1009.7
20260505015016 75 203 3.0 12.0 0.00 0.00 0.00 71 1009.8
20260505014517 75 158 3.0 8.0 0.00 0.00 0.00 70 1009.8
20260505014036 75 180 3.0 10.0 0.00 0.00 0.00 69 1009.8
20260505013516 75 180 3.0 9.0 0.00 0.00 0.00 69 1009.7
20260505013016 76 203 3.0 9.0 0.00 0.00 0.00 69 1009.7
20260505012516 76 225 3.0 8.0 0.00 0.00 0.00 68 1009.7
20260505012016 76 225 3.0 9.0 0.00 0.00 0.00 68 1009.6
20260505011517 76 225 3.0 8.0 0.00 0.00 0.00 67 1009.6
20260505011016 76 225 4.0 12.0 0.00 0.00 0.00 67 1009.5
20260505010516 77 203 4.0 10.0 0.00 0.00 0.00 66 1009.6
20260505010016 77 203 4.0 13.0 0.00 0.00 0.00 66 1009.7
20260505005536 77 180 4.0 13.0 0.00 0.00 0.00 66 1009.6
20260505005016 77 203 3.0 9.0 0.00 0.00 0.00 65 1009.8
20260505004516 77 203 4.0 11.0 0.00 0.00 0.00 65 1009.6
20260505004016 78 203 4.0 12.0 0.00 0.00 0.00 64 1009.6
20260505003516 78 225 6.0 13.0 0.00 0.00 0.00 63 1009.5
20260505003016 78 180 4.0 13.0 0.00 0.00 0.00 63 1009.5
20260505002516 78 203 4.0 11.0 0.00 0.00 0.00 63 1009.5
20260505002016 78 203 5.0 15.0 0.00 0.00 0.00 64 1009.5
20260505001516 78 225 5.0 12.0 0.00 0.00 0.00 63 1009.3
20260505001016 78 180 7.0 17.0 0.00 0.00 0.00 63 1009.3
20260505000536 79 203 5.0 13.0 0.00 0.00 0.00 63 1009.4
20260505000016 79 158 5.0 15.0 0.00 0.00 0.00 63 1009.5
20260504235516 79 203 4.0 11.0 0.00 0.00 0.00 62 1009.5
20260504235016 79 203 5.0 13.0 0.00 0.00 0.00 62 1009.6
20260504234516 79 203 7.0 18.0 0.00 0.00 0.00 62 1009.5
20260504234036 79 180 5.0 14.0 0.00 0.00 0.00 62 1009.7
20260504233537 79 180 6.0 20.0 0.00 0.00 0.00 60 1009.7
20260504233016 79 180 5.0 15.0 0.00 0.00 0.00 62 1009.7
20260504232516 80 203 5.0 15.0 0.00 0.00 0.00 62 1009.7
20260504232016 80 203 6.0 14.0 0.00 0.00 0.00 60 1010.0
20260504231516 80 203 4.0 11.0 0.00 0.00 0.00 60 1009.9
20260504231016 80 203 6.0 14.0 0.00 0.00 0.00 58 1009.9
20260504230516 81 180 6.0 14.0 0.00 0.00 0.00 59 1010.1
20260504230036 81 203 7.0 16.0 0.00 0.00 0.00 59 1010.1
20260504225516 81 203 6.0 15.0 0.00 0.00 0.00 58 1010.1
20260504225016 81 203 6.0 16.0 0.00 0.00 0.00 59 1010.0
20260504224516 81 180 6.0 18.0 0.00 0.00 0.00 58 1010.1
20260504224016 81 225 6.0 16.0 0.00 0.00 0.00 57 1010.3
20260504223516 82 203 7.0 15.0 0.00 0.00 0.00 57 1010.3
20260504223016 81 180 5.0 13.0 0.00 0.00 0.00 58 1010.3
20260504222516 81 203 7.0 16.0 0.00 0.00 0.00 58 1010.2
20260504222016 81 203 7.0 17.0 0.00 0.00 0.00 58 1010.3
20260504221516 82 180 5.0 13.0 0.00 0.00 0.00 56 1010.5
20260504221016 83 180 5.0 12.0 0.00 0.00 0.00 57 1010.4
20260504220516 82 180 5.0 18.0 0.00 0.00 0.00 58 1010.4
20260504220016 82 158 5.0 14.0 0.00 0.00 0.00 57 1010.4
20260504215516 81 180 6.0 13.0 0.00 0.00 0.00 58 1010.7
20260504215016 81 180 6.0 14.0 0.00 0.00 0.00 59 1010.6
20260504214517 81 203 6.0 18.0 0.00 0.00 0.00 58 1010.6
20260504214016 82 180 6.0 13.0 0.00 0.00 0.00 57 1010.6
20260504213516 81 225 5.0 14.0 0.00 0.00 0.00 57 1010.6
20260504213016 81 180 4.0 11.0 0.00 0.00 0.00 60 1010.8
20260504212516 82 203 5.0 11.0 0.00 0.00 0.00 58 1011.0
20260504212036 81 225 6.0 12.0 0.00 0.00 0.00 58 1011.3
20260504211516 81 203 6.0 15.0 0.00 0.00 0.00 58 1011.3
20260504211016 81 225 6.0 15.0 0.00 0.00 0.00 57 1011.3
20260504210516 82 203 5.0 15.0 0.00 0.00 0.00 57 1011.6
20260504210016 81 203 5.0 20.0 0.00 0.00 0.00 58 1011.7
20260504205516 81 203 5.0 11.0 0.00 0.00 0.00 58 1011.6
20260504205016 80 225 5.0 13.0 0.00 0.00 0.00 58 1011.8
20260504204516 80 203 6.0 15.0 0.00 0.00 0.00 58 1011.9
20260504204016 81 180 5.0 15.0 0.00 0.00 0.00 58 1011.9
20260504203516 82 203 7.0 17.0 0.00 0.00 0.00 56 1011.9
20260504203015 81 180 5.0 13.0 0.00 0.00 0.00 57 1012.0
20260504202516 81 203 5.0 15.0 0.00 0.00 0.00 58 1012.1
20260504202016 81 225 6.0 13.0 0.00 0.00 0.00 56 1012.2
20260504201516 82 180 6.0 15.0 0.00 0.00 0.00 56 1012.3
20260504201016 82 180 6.0 15.0 0.00 0.00 0.00 57 1012.4
20260504200515 81 203 6.0 13.0 0.00 0.00 0.00 58 1012.6
20260504200016 81 203 7.0 16.0 0.00 0.00 0.00 58 1012.5
20260504195516 81 158 6.0 16.0 0.00 0.00 0.00 56 1012.6
20260504195016 82 180 7.0 14.0 0.00 0.00 0.00 57 1012.7
20260504194515 81 180 5.0 15.0 0.00 0.00 0.00 58 1012.7
20260504194036 81 203 6.0 18.0 0.00 0.00 0.00 56 1012.9
20260504193515 81 180 5.0 13.0 0.00 0.00 0.00 56 1012.8
20260504193016 81 225 6.0 14.0 0.00 0.00 0.00 59 1012.9
20260504192515 79 225 4.0 10.0 0.00 0.00 0.00 62 1013.0
20260504192016 79 180 5.0 12.0 0.00 0.00 0.00 59 1013.1
20260504191515 80 158 5.0 13.0 0.00 0.00 0.00 58 1013.2
20260504191016 79 180 5.0 14.0 0.00 0.00 0.00 60 1013.3
20260504190535 79 158 6.0 14.0 0.00 0.00 0.00 59 1013.4
20260504190016 79 225 6.0 13.0 0.00 0.00 0.00 62 1013.5
20260504185515 80 158 6.0 17.0 0.00 0.00 0.00 58 1013.4
20260504185015 80 225 6.0 13.0 0.00 0.00 0.00 57 1013.5
20260504184516 79 225 7.0 14.0 0.00 0.00 0.00 62 1013.5
20260504184015 79 225 6.0 12.0 0.00 0.00 0.00 60 1013.4
20260504183516 78 225 5.0 12.0 0.00 0.00 0.00 63 1013.8
20260504183015 78 225 5.0 14.0 0.00 0.00 0.00 62 1013.8
20260504182515 80 225 6.0 12.0 0.00 0.00 0.00 57 1013.9
20260504182035 80 158 4.0 10.0 0.00 0.00 0.00 60 1014.0
20260504181515 78 203 5.0 14.0 0.00 0.00 0.00 63 1014.1
20260504181015 77 180 5.0 15.0 0.00 0.00 0.00 64 1014.1
20260504180515 77 225 4.0 11.0 0.00 0.00 0.00 66 1014.0
20260504180015 77 203 4.0 10.0 0.00 0.00 0.00 66 1014.3
20260504175515 77 203 6.0 13.0 0.00 0.00 0.00 64 1014.3